Location: Izdebno
(52.6670°N, 16.2170°E)
Time: 17:57:15
(UTC+02:00)

Transit 4A - Pass Details

Date: 29 February 2024
Orbit: 871 x 972 km, 66.8° (Epoch: 21 April)

Event Time Altitude Azimuth Distance (km) Brightness Sun altitude
Rises 09:08:38 0° 319° (NW) 3,505 10.3 18.7°
Reaches altitude 10° 09:11:11 10° 315° (NW) 2,551 9.7 18.9°
Maximum altitude 09:16:53 54° 240° (WSW) 1,061 8.4 19.6°
Drops below altitude 10° 09:22:30 10° 165° (SSE) 2,514 11.4 20.2°
Sets 09:25:01 0° 160° (SSE) 3,449 12.0 20.4°
